User: anonymous   Login
Location: Unspecified
(0.0000°N, 0.0000°E)
Time: 21:57:05
(UTC+00:00)
Language:

CUBERRT - Orbit

View from above orbital plane
View from above orbital plane
View from above satellite
View from above satellite

Ground track
Ground track

The orbit data is extracted from the following two-line orbital elements,

1 43546U 98067NU  19047.01724109  .00015419  00000-0  19116-3 0  9998
2 43546  51.6370 238.5237 0005336  35.2196 324.9149 15.60238188 33818
Epoch (UTC): 16 February 2019 00:24:49
Eccentricity: 0.0005336
inclination: 51.6370°
perigee height: 383 km
apogee height: 390 km
right ascension of ascending node: 238.5237°
argument of perigee: 35.2196°
revolutions per day: 15.60238188
mean anomaly at epoch: 324.9149°
orbit number at epoch: 3381

The dashed part of the orbit path shows where the satellite is in the earth's shadow,  

DLR